Dewpoint
13 15 15 16 17 17 17 17 16 16 16 15 15 14 11 8 8 8 8 9 8 8 8 8 9 11 11 7 -1 -6 -4 -5 -5 -4 -3 -3 -3 -3 2 4 5 6 6 4 4 6 7 7 6 5 5 4 2 1 1 3 4 4 5 6 7 7 8
13 15 16 16 16 17 17 16 16 16 15 15 15 14 11 7 7 7 7 8 8 7 6 5 5 7 7 2 -6 -6 -4 -6 -5 -6 -8 -7 -6 -4 -0 2 3 4 2 -1 -3 -3 -0 1 1 1 5 8 8 4 3 3 4 5 6 8 9 10 10
12 14 15 16 16 16 17 16 16 16 15 15 15 14 11 7 5 6 7 8 8 7 5 4 3 3 2 -4 -10 -6 -4 -6 -6 -8 -10 -9 -7 -4 -1 1 2 1 -2 -6 -7 -6 -4 -2 -1 1 6 9 9 6 4 4 5 6 8 9 10 11 11
11 13 15 15 16 16 16 16 16 16 16 15 15 14 11 7 5 5 6 7 7 7 6 3 2 3 -0 -8 -14 -7 -4 -5 -6 -9 -9 -8 -5 -2 -0 1 1 1 -1 -3 -4 -3 -1 1 1 3 5 6 6 6 5 5 5 6 7 8 9 10 10
11 13 14 15 16 16 16 16 16 16 16 15 15 14 12 10 9 8 8 7 7 6 5 3 3 4 2 -9 -17 -8 -6 -4 -6 -7 -8 -8 -5 -2 -1 -1 -0 2 3 2 0 1 3 5 5 3 3 4 5 6 6 5 5 4 5 6 7 7 8
12 13 14 15 16 16 16 16 16 16 15 15 15 15 14 13 12 11 10 9 9 8 7 5 5 6 4 -7 -19 -9 -5 -3 -2 -4 -5 -6 -5 -3 -3 -3 -1 1 3 3 4 5 6 7 6 5 4 5 6 7 6 5 4 4 3 4 5 6 6
12 13 13 14 14 15 16 16 15 15 16 16 16 15 15 14 13 13 12 11 11 10 8 6 5 8 7 -5 -19 -7 -3 -2 -1 -1 -2 -3 -4 -3 -3 -3 -2 0 2 4 5 7 7 7 7 6 7 7 7 6 5 5 5 6 6 5 6 6 7
12 13 13 13 13 13 14 14 14 15 17 17 17 16 16 15 14 14 13 12 12 11 9 7 6 8 8 -1 -12 -4 -2 -2 -0 0 -1 -2 -4 -3 -3 -3 -2 0 2 4 7 8 8 8 8 8 8 8 7 7 6 6 7 8 7 8 8 8 8
11 12 12 12 12 12 13 13 14 16 17 17 17 17 16 15 15 14 14 13 13 12 10 8 7 9 10 3 -6 -4 -0 1 2 1 -1 -3 -4 -3 -2 -3 -2 0 1 4 7 9 9 9 8 8 8 8 8 7 7 7 7 8 8 8 8 8 9
11 11 12 12 12 12 12 13 15 16 17 17 17 17 16 16 15 15 14 14 13 12 10 9 9 10 11 6 -1 -0 4 5 5 3 -0 -4 -4 -2 -1 -1 -0 2 3 4 7 8 8 8 8 7 7 6 6 6 7 8 8 8 8 8 8 9 8
11 11 12 12 11 12 13 14 15 16 16 17 17 17 16 16 15 15 14 14 13 12 11 10 10 12 11 7 2 4 8 6 3 3 1 -4 -3 -0 0 -0 1 4 5 6 7 7 7 7 7 6 6 6 6 6 8 9 9 8 8 7 7 7 7
11 11 11 11 11 12 13 13 14 15 16 17 17 16 16 16 16 15 14 13 13 12 11 10 11 12 11 8 5 8 10 6 1 3 0 -6 -3 -0 -0 -1 1 4 6 7 7 8 8 7 6 6 7 7 6 7 9 9 9 8 7 5 5 6 7
11 11 11 10 10 12 13 14 14 15 16 16 16 16 16 15 15 14 14 13 12 12 11 11 12 12 11 9 7 8 10 7 2 4 -0 -7 -4 -2 -4 -3 -0 3 6 9 10 9 7 6 6 6 6 6 6 8 10 10 9 8 6 5 6 7 7
12 12 12 12 12 12 13 13 14 15 15 16 16 16 16 15 14 13 13 12 12 12 11 11 12 12 11 10 7 8 11 10 8 6 1 -4 -4 -6 -7 -4 -2 2 7 10 10 7 4 4 6 7 6 6 7 9 11 10 9 8 7 6 6 7 7
12 12 12 13 13 13 12 13 14 15 15 16 16 16 15 14 14 13 12 12 12 11 11 11 11 11 11 10 8 7 10 10 8 6 4 2 -1 -5 -6 -5 -3 3 7 8 6 4 4 6 7 6 6 8 9 10 11 10 8 6 6 6 6 7 8
13 12 12 12 12 12 11 11 12 13 14 16 16 15 15 14 14 13 12 12 12 11 10 10 11 11 10 10 8 7 7 7 7 7 7 6 1 -4 -5 -3 -2 3 5 4 2 3 4 5 5 4 6 8 9 10 10 9 7 5 5 5 7 8 8
12 13 12 12 12 11 10 10 11 11 14 15 15 15 14 13 12 12 12 12 12 10 9 9 10 10 10 10 8 8 8 7 7 9 8 5 1 -4 -3 -2 -1 1 2 1 2 3 3 3 2 3 5 7 9 10 9 7 6 6 6 6 7 8 8
10 13 13 12 12 11 10 10 11 12 13 14 15 15 14 13 12 12 13 12 11 10 8 9 11 11 11 11 10 11 10 7 8 11 9 4 1 -2 -2 -0 1 2 2 2 3 4 4 3 2 4 6 8 9 10 8 6 6 7 7 7 8 8 8
9 10 11 9 9 9 9 9 10 10 11 13 14 14 13 13 13 12 12 12 11 10 9 10 11 11 11 11 10 12 11 8 9 11 9 5 4 1 -0 1 2 2 3 4 3 4 4 4 5 7 8 9 10 9 7 6 7 7 7 7 7 8 8
8 8 7 5 5 6 6 7 8 9 10 12 12 12 12 12 12 12 11 12 11 10 9 10 11 11 12 12 12 12 10 8 10 11 8 6 6 5 3 3 2 2 3 4 4 4 5 5 7 8 8 9 9 9 8 8 8 7 7 7 7 7 8
6 6 5 4 3 3 3 3 4 6 8 11 12 12 12 13 13 13 13 13 12 11 12 12 13 13 14 14 13 11 10 9 11 11 9 8 8 7 6 4 3 2 4 4 4 4 5 6 7 7 8 9 10 10 10 9 8 8 7 7 7 7 8
4 4 4 4 3 4 4 4 4 5 6 8 10 11 12 13 13 13 13 13 13 13 14 14 14 15 14 13 11 10 10 10 11 11 10 10 9 9 8 6 3 1 2 3 4 4 5 6 7 8 9 10 10 10 10 10 9 8 8 7 7 7 7
5 4 4 5 4 4 5 6 5 6 6 7 9 10 11 12 14 14 14 14 14 14 14 14 14 15 14 13 12 11 10 11 11 11 11 11 10 10 9 6 2 1 2 3 4 5 6 8 8 9 10 9 9 9 10 10 9 8 7 7 7 7 7
6 5 5 5 4 4 6 8 8 7 8 9 9 10 11 13 15 15 15 14 14 14 14 14 14 14 14 14 13 11 11 11 9 9 12 12 10 9 9 6 3 1 2 4 5 7 9 9 10 10 9 7 8 9 10 10 9 8 7 7 7 7 7
5 5 5 5 5 5 5 6 6 6 7 8 9 10 12 14 15 15 14 14 13 13 14 15 14 14 14 14 12 11 11 9 4 7 12 12 10 8 7 6 3 2 3 6 7 9 10 10 10 10 9 8 8 10 10 10 9 8 8 8 7 7 7
4 5 7 6 6 7 6 4 4 2 3 5 8 11 13 14 16 15 14 13 13 13 14 14 13 14 14 13 12 11 11 7 3 7 11 10 8 7 6 5 4 3 5 7 9 10 10 10 10 9 8 8 8 9 10 9 8 8 8 8 8 8 7
5 6 7 7 6 6 4 4 3 2 2 2 4 8 10 13 15 15 14 13 13 13 13 12 12 12 13 12 11 11 10 7 4 7 9 8 6 5 6 6 5 5 7 8 10 11 11 10 9 8 7 8 9 9 9 9 8 8 8 8 8 7 7
5 5 5 5 5 4 3 4 4 4 3 2 2 4 7 10 12 14 14 14 13 13 12 12 12 12 12 11 11 10 9 8 6 7 7 6 5 5 7 7 7 8 10 11 11 11 10 9 8 8 9 9 9 9 9 8 8 8 8 7 7 6 6
2 2 2 4 6 5 5 5 4 5 5 5 5 6 7 8 10 13 14 13 13 13 12 12 12 11 11 11 10 10 10 9 7 6 5 4 5 6 8 9 9 10 11 11 10 10 9 8 9 10 10 9 8 8 8 7 7 7 7 7 6 6 6
2 1 1 3 5 7 7 6 5 6 7 7 8 8 8 9 10 12 12 12 12 12 12 12 12 12 12 12 12 11 10 8 6 5 5 6 8 9 10 10 10 10 10 9 9 9 8 9 10 10 9 7 6 6 6 6 6 6 5 5 5 6 6
3 3 2 2 5 8 9 8 7 7 8 8 7 8 10 11 12 12 12 12 11 11 11 11 11 12 12 12 12 12 10 9 8 7 6 7 9 10 10 10 9 9 8 8 8 8 8 9 9 8 6 6 6 6 5 5 4 4 4 4 5 6 6
3 3 4 3 5 8 11 12 10 7 7 8 9 11 13 13 13 13 13 12 12 12 11 11 11 12 12 12 12 11 9 7 6 5 6 8 9 9 9 9 8 7 7 7 7 7 8 8 7 6 5 6 5 4 4 4 4 4 4 5 5 6 7
4 4 4 3 4 5 8 11 11 10 10 11 11 12 13 13 13 12 12 11 11 12 12 11 11 10 9 8 8 7 4 3 2 2 5 8 9 9 8 8 8 7 7 7 6 6 6 6 6 6 6 5 4 4 4 4 4 5 5 5 5 6 7
5 4 3 3 3 3 4 7 10 11 11 10 10 11 12 12 12 11 10 9 10 10 10 9 7 5 3 3 4 3 1 2 1 1 4 8 9 9 8 8 8 8 7 7 6 6 6 6 6 6 5 4 4 4 4 4 4 4 5 5 6 6 6
5 5 4 3 3 4 3 6 10 11 11 10 10 11 12 11 10 9 9 8 8 8 8 7 5 5 4 3 3 2 1 1 -0 0 4 8 9 9 8 8 8 7 7 6 6 6 6 6 5 4 4 4 4 4 4 4 3 4 4 5 6 6 6
5 5 5 4 5 5 6 8 10 11 11 11 11 11 11 10 9 9 8 8 7 7 7 6 6 6 5 3 2 2 1 -2 -2 1 6 8 9 8 8 8 7 7 7 7 7 7 6 5 4 4 4 3 3 4 4 3 3 4 5 6 6 6 7
6 5 5 5 5 5 8 11 12 11 12 12 11 11 10 10 9 8 8 9 8 7 6 7 6 5 5 4 2 1 -0 -2 0 5 7 8 9 8 8 7 7 7 7 7 7 6 5 5 5 4 3 3 4 4 4 4 4 5 5 6 7 7 6
7 6 5 6 6 6 10 12 12 11 11 11 10 10 9 9 9 8 9 9 8 7 7 7 5 3 4 2 -0 -1 2 4 6 8 8 8 8 8 7 7 7 7 7 6 5 5 5 5 6 5 4 4 4 5 4 5 5 5 6 6 7 6 5
Wind_Speed
40 41 43 44 44 46 47 47 47 46 45 43 40 40 40 40 39 37 36 34 32 30 29 27 26 26 25 23 19 16 14 10 8 8 8 9 10 11 11 11 11 12 12 11 12 12 12 11 10 10 10 8 6 5 4 3 3 3 3 3 3 4 5
38 40 41 42 43 45 47 48 48 48 47 45 43 42 43 43 42 41 39 37 35 33 30 29 27 26 25 23 20 17 14 11 9 8 9 9 10 10 10 10 10 10 10 10 10 10 11 10 9 8 8 8 8 8 6 5 4 5 4 4 5 7 9
38 39 41 43 45 47 48 48 49 50 49 47 46 44 45 45 44 43 42 40 38 35 32 30 29 27 26 25 23 19 15 12 10 9 8 8 8 9 10 9 9 9 9 9 9 9 8 8 7 6 7 9 11 10 8 7 6 7 6 6 7 9 11
39 42 43 45 46 47 48 49 50 50 51 50 48 47 47 47 46 45 43 42 41 39 36 33 31 30 29 27 25 20 16 13 11 9 8 8 8 9 9 9 8 9 9 8 8 7 6 6 7 7 8 11 12 11 10 9 9 8 8 8 9 10 12
38 40 41 41 43 45 47 49 51 51 52 51 50 49 48 47 47 46 44 43 42 40 37 35 33 32 31 29 26 22 17 13 11 10 9 9 9 9 9 8 7 7 8 7 7 6 6 8 9 9 9 10 12 12 11 10 10 10 10 10 11 11 13
37 40 41 42 44 46 48 51 52 52 53 53 52 51 50 50 49 47 46 45 43 41 38 36 35 35 34 31 27 23 18 14 12 10 9 9 10 10 8 7 6 7 7 7 6 5 6 8 9 9 8 9 11 12 12 11 10 11 11 11 11 12 12
40 42 44 45 46 48 50 52 52 53 54 54 54 52 52 52 51 49 48 46 46 43 41 38 36 37 36 32 29 25 19 15 13 11 10 10 10 10 8 7 6 6 7 7 6 6 6 7 8 7 8 8 9 9 10 10 10 10 10 10 10 11 12
40 42 44 46 48 50 51 52 54 55 55 54 53 53 54 54 52 52 50 49 49 46 43 40 38 38 37 33 29 25 20 16 13 11 11 10 10 11 9 8 7 7 7 7 6 7 8 8 8 8 8 8 8 9 10 10 10 9 9 9 10 11 12
39 43 46 48 50 51 52 53 55 55 54 54 54 55 55 55 55 54 53 52 51 49 46 41 39 38 37 35 30 26 21 17 14 12 11 11 12 12 10 9 9 9 7 6 6 8 10 10 10 10 10 9 10 11 10 10 10 9 10 11 11 12 13
38 43 47 48 50 52 53 53 53 53 54 54 54 54 55 55 55 55 54 53 52 50 46 42 40 39 38 36 31 26 23 19 16 14 12 12 13 13 12 10 10 9 7 6 7 9 10 11 11 11 10 10 10 10 9 10 11 12 12 12 13 14 15
40 43 46 48 50 52 51 51 51 53 54 55 54 55 55 55 56 55 55 54 53 50 46 43 41 40 39 36 31 28 26 21 16 16 14 12 14 14 12 11 10 10 8 8 9 9 10 11 12 11 11 11 11 10 10 11 13 14 14 15 14 15 15
40 42 44 47 49 50 50 50 51 53 54 55 55 55 56 56 56 56 55 54 52 49 46 43 43 42 40 37 32 30 29 23 18 18 14 12 14 14 12 10 9 9 9 9 10 10 12 14 13 12 12 12 12 11 11 13 14 16 17 16 14 12 13
39 42 44 46 46 48 48 47 48 51 52 54 55 55 56 57 56 56 55 54 51 48 45 44 45 43 41 38 33 32 32 25 20 19 15 11 13 13 11 10 9 10 11 11 13 14 15 15 13 12 12 12 11 11 12 13 15 16 16 13 10 10 12
38 40 41 43 43 44 45 45 47 50 52 54 55 56 56 57 56 55 55 53 50 47 45 45 46 44 42 39 36 35 33 25 19 19 16 12 12 12 10 9 9 10 12 13 15 16 15 13 13 14 13 11 10 11 13 14 16 15 13 11 10 11 13
35 37 38 39 39 41 43 45 47 50 53 55 56 56 56 56 56 55 55 53 50 48 46 46 47 45 43 41 38 37 34 24 20 21 18 14 13 11 9 9 9 11 12 13 15 15 14 14 15 15 12 10 11 12 13 15 15 15 14 12 12 13 14
31 34 36 35 35 37 41 44 47 49 52 54 55 56 57 56 56 56 56 55 52 49 47 47 47 46 44 44 42 39 34 25 23 24 21 18 14 11 10 9 10 11 12 13 14 13 13 13 14 12 10 10 10 11 13 14 13 13 13 13 13 15 17
29 31 33 33 33 34 37 42 45 48 51 53 55 57 57 56 56 56 56 56 54 51 48 48 49 47 46 45 42 39 34 25 24 27 24 19 15 11 11 10 11 12 12 13 13 12 12 11 11 10 9 9 11 12 13 14 13 12 13 13 15 17 19
28 27 27 28 30 32 35 40 43 45 49 52 54 56 56 56 55 55 56 57 55 52 49 49 49 46 46 44 40 38 32 22 24 30 26 19 16 13 11 11 13 14 14 14 14 12 11 10 10 10 10 11 13 14 14 13 13 14 15 15 16 18 19
25 23 20 19 20 23 27 32 35 40 46 49 52 54 54 55 55 55 56 56 55 53 51 50 49 48 48 44 39 38 31 20 24 31 25 19 17 14 12 14 15 15 15 15 13 12 12 11 11 12 13 14 15 15 14 14 15 16 17 18 19 19 19
21 19 17 14 12 12 14 17 22 29 37 45 49 49 49 52 53 53 53 54 55 54 52 51 50 49 49 44 40 38 28 22 28 31 23 18 19 16 15 16 16 16 16 15 13 13 13 13 14 14 15 17 17 17 17 17 18 18 19 20 20 20 19
16 14 13 11 8 7 8 9 11 16 25 34 40 44 47 50 51 52 53 53 53 51 50 49 47 46 46 43 41 36 24 20 27 29 23 21 22 20 18 17 17 17 17 16 14 14 14 14 15 15 17 20 21 20 19 19 20 20 21 21 20 19 19
14 12 9 7 5 5 7 7 7 9 13 20 28 36 42 46 49 51 50 47 43 40 41 43 41 42 42 41 41 35 23 21 26 28 28 27 24 23 21 18 18 18 17 17 16 15 15 15 16 17 20 23 23 21 20 20 21 22 22 22 21 21 21
14 11 6 5 4 4 7 5 3 3 6 12 19 27 33 39 44 45 41 39 39 39 41 43 44 44 44 45 42 31 20 20 25 29 33 32 27 24 22 20 18 17 17 19 18 17 18 19 19 19 20 22 21 19 19 21 21 22 22 23 23 22 22
13 8 2 4 6 4 5 5 2 1 4 9 16 22 29 36 40 38 37 41 44 45 44 44 45 44 46 47 39 25 19 22 25 30 35 34 28 25 23 22 20 19 19 20 21 22 25 25 22 20 21 21 19 18 21 22 21 21 22 23 22 21 21
9 4 3 5 6 7 9 8 4 5 7 9 12 18 25 35 39 37 37 41 43 43 42 41 41 42 46 48 38 25 24 26 25 28 35 35 29 25 24 23 21 20 21 23 25 26 28 26 21 20 22 23 21 20 22 22 20 19 20 20 21 21 21
3 3 6 7 7 7 7 7 7 10 12 12 11 13 20 30 36 36 37 38 40 42 42 40 40 42 46 46 37 28 27 27 24 27 31 31 28 26 25 23 21 22 23 25 26 27 28 24 18 16 18 20 19 19 19 19 17 16 17 19 21 22 22
1 1 2 2 5 7 9 11 12 13 13 12 10 10 13 22 30 35 39 40 42 46 44 37 36 41 44 39 31 27 28 25 22 24 26 25 25 25 25 24 24 25 25 26 26 25 22 18 15 16 16 15 14 14 15 15 15 16 18 20 20 20 20
4 4 5 8 10 13 16 17 16 16 16 14 11 10 11 16 24 32 38 41 44 46 42 33 30 36 40 36 29 29 31 26 21 20 21 21 23 26 28 28 27 26 24 22 21 18 15 13 18 18 13 12 12 12 14 15 16 19 20 20 19 19 19
9 9 10 10 10 14 17 17 17 18 18 15 12 12 12 15 21 28 35 39 41 41 38 29 26 30 34 35 32 32 30 25 20 18 19 22 25 29 31 29 26 24 22 20 19 18 17 18 18 13 11 11 13 14 15 17 19 21 21 19 19 19 19
14 14 14 14 12 13 15 17 18 18 16 14 12 13 13 16 21 27 31 32 33 34 32 27 26 28 29 29 30 31 28 25 22 20 20 23 26 30 31 29 25 22 22 21 22 22 21 17 13 12 13 15 15 16 18 20 22 22 21 19 19 18 18
17 15 14 15 14 13 16 19 19 17 16 13 11 11 13 17 22 25 26 26 25 26 25 23 25 27 25 23 24 27 26 22 17 13 12 16 20 24 25 24 23 22 21 21 22 19 15 13 14 15 16 17 17 18 21 22 22 21 19 18 17 17 18
17 15 13 13 13 14 15 17 16 15 13 11 11 13 17 21 22 19 18 20 21 21 21 23 26 25 22 21 20 17 13 8 3 4 7 11 14 17 18 19 19 18 17 16 16 14 13 15 16 17 17 17 18 20 21 21 21 20 18 17 17 17 17
16 15 14 13 11 12 12 12 13 13 12 12 14 16 19 20 20 16 13 15 18 17 14 17 20 18 15 15 14 9 3 3 6 8 9 11 15 17 19 19 18 15 13 13 14 14 14 15 15 15 16 18 19 20 21 22 21 20 19 17 16 15 15
15 15 13 12 10 11 11 11 13 15 16 16 16 18 17 14 14 15 14 12 12 13 15 16 13 12 12 11 8 4 6 9 11 12 12 16 21 22 20 18 15 13 11 12 13 13 13 13 14 15 17 18 20 21 21 21 20 20 19 17 15 14 14
13 13 12 11 10 10 10 11 15 19 20 20 20 20 19 19 22 24 22 20 19 17 14 14 16 15 14 12 11 10 11 11 10 13 17 20 22 21 18 16 14 12 11 11 12 12 12 13 15 16 17 18 20 21 21 19 18 17 16 15 15 14 15
11 11 11 11 9 9 11 13 17 21 22 22 22 24 26 27 27 25 24 22 19 14 9 10 13 14 13 13 14 13 11 11 12 17 20 21 19 18 16 15 13 13 12 12 12 13 13 14 15 16 17 19 21 20 19 17 15 14 14 15 14 15 16
10 10 9 10 9 10 13 18 22 24 25 26 27 30 31 28 23 19 16 15 13 9 7 6 8 5 3 5 5 4 9 13 17 20 21 19 17 16 15 15 15 14 14 13 14 14 14 14 15 16 18 20 20 19 18 15 13 13 14 14 14 15 15
11 10 10 10 12 14 18 23 26 26 26 27 27 27 26 21 14 8 8 12 14 12 10 13 12 10 13 12 9 12 17 19 20 20 20 19 18 17 17 17 17 16 15 15 15 16 15 15 16 17 19 20 18 17 15 13 12 13 14 14 14 14 14
Wind_Direction
196 197 197 198 198 198 198 197 196 196 195 196 197 197 197 197 197 201 203 203 205 209 212 214 217 220 224 227 224 219 213 204 206 209 216 226 225 222 221 224 230 235 240 242 237 232 233 241 250 258 264 273 289 299 295 289 289 288 292 312 328 326 330
195 197 197 198 198 199 200 198 197 197 197 198 198 198 198 198 199 203 205 206 207 210 212 215 216 218 223 225 220 216 209 196 199 206 210 216 214 212 216 221 230 238 240 234 228 228 233 240 249 256 263 275 291 299 297 292 290 295 298 305 314 316 318
193 196 198 199 200 200 200 199 198 198 198 199 199 199 200 200 202 205 207 208 208 210 212 214 216 217 220 223 217 213 207 194 194 202 205 208 206 206 212 217 227 234 231 222 218 221 226 232 246 261 271 277 284 291 295 294 289 290 292 295 302 306 310
193 197 199 200 202 202 201 199 199 199 200 201 202 203 203 203 205 206 208 210 209 209 210 212 215 216 219 221 216 211 206 194 191 196 202 207 207 207 208 212 220 224 220 216 216 218 231 247 260 273 279 279 282 287 291 290 287 285 282 283 286 288 294
192 196 198 199 200 200 201 200 200 200 201 203 204 206 207 206 206 207 210 212 212 212 211 211 213 215 218 220 217 212 206 196 192 195 199 207 210 211 209 209 221 226 220 220 223 228 247 264 271 276 279 283 287 288 287 287 287 286 282 279 281 283 289
189 193 195 197 199 201 202 202 202 203 203 205 206 208 208 207 207 209 211 213 214 215 214 214 216 218 219 220 217 212 205 200 196 198 202 208 215 218 213 210 223 233 229 225 229 241 255 267 272 273 280 289 290 287 286 290 295 296 292 287 287 289 296
189 191 194 197 200 203 204 204 205 206 206 206 207 207 207 207 208 210 212 214 215 215 215 216 218 220 221 222 218 211 206 203 201 202 207 213 222 224 215 210 216 223 226 223 227 243 257 271 277 277 286 296 297 292 290 296 304 306 301 295 295 297 304
191 191 194 199 203 207 207 207 207 207 205 205 205 205 205 207 209 210 212 214 214 215 216 217 220 221 222 222 218 211 206 205 203 205 212 218 226 227 216 207 204 205 213 221 231 245 258 273 281 281 288 301 311 310 303 303 307 306 303 302 304 305 305
193 195 199 202 204 207 209 209 208 206 204 204 204 205 206 207 209 210 212 213 214 215 216 218 222 223 222 222 218 211 207 208 207 207 211 218 226 228 216 201 195 199 211 225 239 254 266 276 282 287 298 310 316 315 309 308 309 306 304 302 299 298 296
195 199 202 203 204 207 208 208 207 204 203 204 204 205 206 207 209 210 211 213 214 215 217 219 223 223 222 220 216 210 209 210 211 212 212 216 222 224 214 200 194 199 211 229 245 260 268 272 280 290 301 310 310 309 306 304 303 300 298 295 291 291 292
199 201 202 205 207 208 208 206 205 204 204 204 204 204 206 207 208 209 211 214 215 216 217 220 222 222 220 217 213 210 209 207 211 215 212 213 219 220 213 202 198 202 214 233 245 257 265 268 276 283 291 298 298 296 295 294 293 293 295 296 293 292 295
198 200 202 207 209 209 209 207 206 205 205 204 204 204 205 206 208 210 213 215 216 217 218 220 221 221 219 215 210 209 209 208 212 211 205 205 213 215 213 207 202 208 220 232 238 252 263 264 269 275 280 284 285 286 289 289 292 294 294 293 293 297 302
195 198 202 207 209 209 208 207 206 205 205 205 205 205 206 208 210 212 214 216 216 218 219 220 221 219 217 213 210 210 211 212 214 208 196 195 204 208 211 209 206 214 226 234 241 252 258 258 264 274 276 276 276 280 283 287 292 293 289 286 292 302 307
191 196 201 204 205 205 205 206 207 206 205 206 206 206 208 210 213 215 217 217 217 218 219 221 220 218 216 212 211 211 210 211 217 213 200 192 198 204 208 205 207 218 227 235 243 250 253 255 264 269 270 274 278 277 278 284 289 287 284 286 293 299 302
187 193 198 201 203 205 206 207 206 205 206 206 206 207 208 210 213 215 217 218 218 219 222 223 220 217 215 211 211 210 206 208 219 216 206 201 201 205 210 205 205 218 228 236 244 248 250 254 258 260 266 277 281 278 277 282 287 288 287 287 288 291 294
185 195 200 202 205 207 208 209 208 208 206 205 205 206 208 210 212 215 218 218 219 221 225 224 220 218 215 211 211 208 204 208 217 211 204 206 208 209 212 206 204 215 226 233 240 245 248 250 253 255 266 281 283 280 277 279 290 297 293 283 280 285 288
184 191 198 202 205 206 208 210 210 210 208 206 206 207 209 212 215 218 219 219 220 223 227 226 221 217 214 211 210 208 203 205 211 209 205 206 209 211 213 211 210 214 221 230 237 243 245 247 252 254 262 276 280 278 276 279 288 293 290 283 279 282 286
185 187 193 199 204 207 211 212 212 212 211 210 209 209 211 214 216 217 218 220 223 225 226 224 218 213 210 209 210 208 205 203 205 207 208 206 207 211 214 218 221 222 226 234 240 245 244 245 254 259 260 264 267 271 277 283 284 283 285 285 282 283 288
180 181 181 184 194 205 213 219 221 222 219 216 213 214 216 216 217 219 221 223 223 224 224 220 215 212 211 210 207 203 207 216 211 208 210 211 210 212 215 221 227 229 231 237 242 247 246 248 258 263 263 261 261 267 276 282 280 277 279 282 282 285 289
163 167 167 163 170 186 204 219 228 233 231 224 220 220 221 221 222 224 224 223 222 223 222 216 213 213 210 206 201 198 207 224 214 209 215 218 214 215 218 225 232 234 236 239 243 247 248 251 258 264 267 266 263 265 272 277 275 273 277 281 281 283 286
160 165 166 161 167 190 208 214 220 233 237 231 227 225 223 223 224 223 223 222 221 221 217 210 209 206 201 198 194 192 206 218 208 212 226 224 218 221 222 228 237 240 241 240 240 247 252 254 259 266 270 269 266 266 269 273 273 271 274 277 276 277 281
175 168 168 166 179 230 240 227 216 224 233 234 233 230 227 226 226 224 222 219 215 212 207 203 200 193 188 187 186 191 208 212 204 219 232 226 223 225 224 232 242 244 245 242 240 247 253 256 263 268 273 276 276 276 274 272 273 273 274 277 278 279 282
168 155 157 164 170 241 254 244 234 221 228 236 236 235 235 232 226 221 215 210 207 207 205 202 198 194 190 189 191 201 215 207 208 227 234 228 226 228 228 236 242 245 248 244 242 247 252 256 260 262 270 279 284 285 281 276 276 279 282 286 288 286 284
153 146 173 185 177 200 214 204 181 185 237 241 238 240 239 232 223 214 210 210 210 209 206 202 202 204 201 198 201 210 206 201 216 232 232 229 230 233 234 238 244 250 251 247 248 250 249 251 254 259 270 280 285 287 284 279 279 285 291 294 292 287 282
148 161 220 208 194 190 188 193 225 272 270 255 246 246 241 231 222 215 212 213 209 204 202 202 207 212 207 203 208 212 199 202 217 224 225 230 235 237 237 241 249 255 252 251 251 250 250 254 261 269 274 275 275 274 273 274 280 290 294 294 291 286 281
146 196 192 180 186 196 205 227 260 277 282 276 264 254 244 234 225 217 214 213 208 204 205 209 217 219 212 211 220 219 207 212 220 214 217 228 236 239 241 244 253 257 255 254 252 251 254 257 265 274 273 270 269 266 266 273 284 289 287 287 286 284 280
74 281 221 234 258 269 281 281 277 275 275 272 268 261 250 239 230 223 219 217 214 213 214 217 224 222 218 223 232 220 207 214 219 210 214 227 237 243 244 245 253 257 254 252 252 253 253 255 275 289 280 271 271 265 265 275 283 284 284 284 284 283 282
21 349 333 311 289 285 285 279 276 273 261 252 254 262 262 249 238 229 223 221 222 221 218 222 231 229 229 238 235 213 207 218 222 216 222 235 244 246 243 245 251 251 247 248 248 241 237 262 294 296 275 262 267 264 267 279 285 286 287 286 285 284 282
348 343 343 331 303 290 282 272 269 266 256 247 248 254 258 253 242 232 226 227 230 227 222 228 239 238 239 240 227 211 212 222 226 226 235 244 247 244 242 243 245 241 237 238 238 239 252 275 286 274 249 259 273 273 280 289 290 290 291 290 288 284 278
345 339 339 338 322 299 281 270 264 257 245 243 248 249 249 248 240 232 229 232 236 232 229 236 240 235 234 232 222 215 216 221 225 234 246 252 250 245 241 241 240 236 235 241 250 264 277 278 258 240 254 274 282 285 291 293 292 294 296 295 291 285 278
350 344 340 338 325 296 269 257 255 251 243 244 249 244 239 236 232 229 231 235 236 231 226 227 226 223 223 223 221 219 218 219 225 241 266 274 265 254 247 243 241 242 246 255 265 272 269 249 239 253 272 282 289 294 297 297 298 299 299 296 291 286 283
342 340 336 329 316 293 266 244 241 248 244 229 217 215 216 215 213 216 227 234 235 233 229 223 218 214 212 211 209 205 202 205 237 299 294 277 260 251 247 244 244 248 252 259 263 257 244 241 253 267 278 288 297 303 303 304 306 305 302 298 292 287 283
334 331 325 318 306 292 272 248 240 238 220 199 196 201 203 205 206 208 214 223 229 230 221 205 196 184 173 177 180 170 138 26 357 336 301 261 244 243 244 244 248 254 256 256 255 251 251 258 267 278 289 300 307 309 307 308 308 305 302 298 292 284 277
329 323 316 308 296 285 277 259 237 216 196 189 192 191 187 179 171 167 156 142 145 143 123 109 107 106 104 109 115 86 17 357 343 323 291 256 244 243 244 243 247 253 255 255 254 255 262 272 282 291 300 307 309 307 305 305 305 303 298 292 286 279 273
319 311 302 292 281 275 273 255 226 205 192 189 190 184 171 150 144 153 154 141 137 138 115 67 39 45 59 53 38 23 4 343 311 280 260 246 240 240 240 241 243 246 248 250 252 259 270 282 291 296 301 305 305 302 302 303 301 296 290 284 279 274 274
307 300 293 286 277 266 254 234 216 201 187 179 176 174 167 157 153 157 159 157 157 148 109 44 21 36 45 24 9 2 342 309 270 252 246 240 237 237 237 236 235 235 238 245 253 264 276 286 293 298 301 304 303 301 300 300 295 286 279 275 272 271 275
291 287 282 275 266 250 226 205 200 196 181 168 165 164 161 155 149 146 150 167 179 157 99 20 339 331 302 304 316 295 268 255 241 235 234 232 232 235 236 234 232 234 240 252 263 271 278 285 292 296 301 303 301 298 297 294 285 276 271 267 267 269 271
269 266 265 256 242 231 214 196 190 187 175 164 161 161 158 159 167 194 237 242 233 231 257 285 282 242 223 226 218 212 220 224 223 226 229 232 236 240 239 237 238 241 251 264 272 274 276 281 286 291 296 298 296 292 291 287 279 271 265 263 264 264 262
Height
1489 1491 1494 1497 1499 1501 1503 1505 1509 1512 1515 1517 1519 1522 1525 1527 1529 1531 1533 1534 1536 1537 1539 1540 1541 1543 1544 1545 1546 1547 1546 1546 1546 1546 1546 1547 1547 1548 1548 1548 1549 1549 1549 1549 1549 1549 1549 1549 1550 1550 1550 1550 1549 1549 1548 1548 1548 1548 1548 1548 1547 1547 1547
1487 1490 1492 1495 1497 1498 1500 1503 1506 1508 1511 1514 1516 1518 1520 1522 1524 1526 1528 1530 1532 1533 1535 1537 1538 1539 1541 1542 1543 1544 1544 1543 1543 1544 1544 1545 1545 1545 1546 1546 1547 1547 1547 1547 1547 1547 1547 1548 1548 1549 1549 1549 1549 1548 1547 1547 1547 1547 1547 1547 1547 1547 1546
1484 1487 1489 1492 1493 1495 1498 1500 1503 1505 1508 1510 1512 1514 1516 1517 1518 1520 1523 1525 1528 1530 1532 1533 1534 1536 1538 1539 1540 1541 1541 1541 1541 1542 1542 1543 1543 1543 1544 1544 1545 1545 1545 1545 1545 1545 1546 1546 1547 1547 1548 1548 1548 1547 1547 1546 1546 1546 1546 1546 1546 1545 1545
1481 1483 1485 1488 1490 1492 1495 1497 1499 1502 1504 1506 1507 1508 1510 1512 1513 1515 1518 1520 1523 1525 1527 1529 1530 1532 1534 1535 1537 1538 1538 1538 1539 1540 1540 1541 1541 1541 1542 1543 1543 1544 1544 1544 1544 1544 1545 1546 1546 1546 1547 1547 1547 1547 1546 1545 1545 1545 1545 1544 1544 1544 1544
1478 1481 1485 1487 1489 1492 1493 1494 1497 1499 1501 1503 1504 1505 1506 1508 1510 1512 1514 1516 1518 1520 1522 1525 1527 1528 1530 1532 1534 1535 1536 1536 1537 1537 1538 1539 1539 1540 1540 1541 1542 1542 1543 1543 1544 1544 1544 1545 1545 1545 1546 1546 1546 1546 1545 1544 1544 1543 1543 1543 1543 1542 1542
1476 1478 1482 1484 1487 1489 1489 1491 1493 1495 1497 1499 1500 1502 1504 1506 1508 1509 1511 1513 1515 1518 1521 1523 1525 1526 1527 1529 1531 1532 1533 1534 1535 1536 1536 1537 1538 1538 1538 1539 1540 1541 1542 1543 1543 1543 1544 1544 1545 1544 1545 1545 1545 1544 1544 1543 1542 1542 1542 1541 1541 1541 1540
1471 1473 1477 1480 1483 1484 1485 1488 1490 1491 1493 1495 1497 1500 1501 1503 1505 1507 1509 1511 1512 1515 1517 1520 1522 1523 1525 1526 1528 1530 1532 1533 1534 1534 1535 1535 1536 1537 1537 1537 1538 1539 1541 1542 1542 1543 1543 1544 1544 1543 1543 1543 1543 1543 1543 1542 1542 1541 1540 1540 1540 1540 1539
1467 1470 1473 1476 1477 1479 1482 1483 1485 1487 1489 1492 1495 1497 1498 1500 1502 1504 1505 1507 1509 1512 1514 1516 1517 1519 1522 1524 1526 1529 1530 1531 1532 1533 1533 1534 1535 1536 1535 1535 1536 1537 1539 1540 1541 1541 1542 1542 1543 1542 1542 1542 1541 1541 1541 1541 1541 1540 1539 1539 1539 1538 1538
1465 1467 1469 1471 1473 1475 1477 1478 1480 1483 1486 1489 1490 1492 1494 1496 1498 1500 1501 1503 1506 1508 1511 1513 1515 1517 1520 1522 1525 1527 1529 1529 1530 1530 1531 1532 1533 1534 1534 1534 1534 1535 1536 1537 1539 1540 1540 1540 1541 1541 1540 1540 1540 1540 1540 1540 1539 1539 1538 1537 1537 1536 1536
1462 1464 1465 1467 1469 1470 1472 1474 1477 1480 1482 1485 1487 1489 1491 1493 1495 1497 1499 1501 1502 1505 1508 1511 1513 1515 1518 1520 1523 1525 1526 1527 1529 1529 1529 1530 1532 1533 1533 1533 1532 1533 1534 1535 1536 1537 1538 1539 1539 1539 1538 1538 1538 1538 1538 1538 1538 1537 1536 1535 1535 1534 1534
1457 1460 1462 1464 1466 1467 1469 1471 1474 1477 1479 1481 1483 1485 1487 1489 1492 1493 1495 1497 1499 1502 1505 1508 1510 1512 1515 1518 1520 1522 1523 1525 1527 1528 1527 1528 1530 1532 1532 1531 1531 1532 1532 1533 1534 1535 1536 1536 1537 1536 1536 1536 1536 1536 1536 1536 1536 1535 1534 1533 1533 1532 1531
1454 1456 1459 1461 1462 1464 1466 1468 1471 1473 1475 1477 1479 1481 1484 1486 1488 1489 1491 1493 1495 1499 1502 1504 1507 1509 1512 1515 1518 1520 1520 1521 1524 1525 1525 1526 1528 1530 1530 1530 1529 1530 1530 1531 1532 1533 1533 1534 1534 1534 1534 1534 1534 1534 1534 1534 1534 1533 1532 1532 1531 1530 1529
1451 1453 1456 1457 1458 1461 1464 1466 1469 1470 1472 1474 1476 1478 1480 1482 1484 1486 1488 1490 1492 1496 1498 1501 1503 1505 1508 1512 1514 1516 1517 1518 1521 1523 1523 1524 1525 1527 1528 1527 1527 1527 1528 1529 1529 1530 1531 1532 1532 1532 1532 1533 1533 1533 1532 1532 1532 1532 1531 1530 1529 1528 1527
1449 1452 1454 1455 1457 1459 1461 1464 1466 1468 1469 1471 1472 1474 1476 1479 1481 1483 1484 1486 1489 1492 1494 1496 1498 1501 1505 1508 1510 1512 1514 1519 1523 1523 1521 1521 1523 1524 1525 1525 1525 1525 1526 1527 1527 1528 1529 1530 1530 1531 1531 1532 1531 1531 1531 1531 1530 1530 1530 1529 1528 1527 1526
1448 1450 1452 1454 1456 1457 1459 1461 1462 1464 1466 1467 1468 1471 1473 1475 1478 1480 1482 1483 1485 1488 1490 1491 1493 1496 1500 1503 1505 1508 1511 1515 1518 1520 1520 1520 1520 1521 1522 1522 1523 1524 1524 1525 1526 1527 1527 1528 1529 1529 1530 1530 1529 1529 1529 1529 1529 1528 1528 1527 1527 1526 1524
1447 1448 1450 1452 1453 1455 1457 1458 1459 1460 1462 1463 1466 1467 1469 1472 1474 1476 1478 1480 1482 1484 1485 1487 1489 1491 1495 1497 1499 1503 1505 1508 1512 1515 1516 1517 1518 1519 1519 1520 1521 1522 1523 1523 1524 1525 1525 1526 1527 1527 1528 1527 1527 1527 1527 1527 1527 1526 1526 1526 1525 1524 1523
1445 1447 1448 1450 1452 1454 1455 1457 1457 1458 1459 1461 1462 1464 1466 1468 1470 1472 1475 1476 1478 1480 1481 1483 1484 1487 1491 1494 1497 1500 1502 1505 1510 1512 1512 1513 1515 1516 1517 1518 1519 1520 1521 1522 1522 1523 1523 1524 1524 1525 1525 1525 1525 1525 1524 1524 1524 1524 1524 1523 1522 1522 1520
1443 1446 1448 1450 1452 1454 1455 1456 1457 1457 1458 1459 1460 1461 1463 1465 1467 1470 1471 1473 1475 1477 1479 1480 1482 1486 1489 1493 1497 1502 1505 1506 1508 1509 1509 1510 1512 1513 1515 1516 1517 1518 1519 1519 1520 1521 1521 1522 1522 1522 1522 1522 1522 1522 1521 1521 1521 1521 1521 1520 1520 1519 1517
1443 1446 1448 1451 1452 1454 1455 1456 1456 1456 1456 1457 1458 1460 1462 1464 1465 1467 1468 1470 1472 1474 1475 1477 1479 1482 1484 1488 1493 1501 1506 1507 1506 1507 1508 1508 1510 1511 1512 1513 1514 1515 1516 1517 1518 1518 1519 1519 1520 1520 1520 1520 1519 1519 1519 1519 1519 1519 1518 1517 1516 1516 1515
1444 1446 1449 1451 1452 1453 1454 1455 1455 1456 1456 1456 1458 1459 1462 1463 1464 1465 1466 1468 1469 1470 1471 1473 1475 1477 1480 1485 1490 1497 1502 1502 1503 1506 1508 1507 1508 1509 1510 1510 1511 1512 1514 1514 1515 1516 1516 1517 1517 1517 1517 1517 1517 1516 1516 1517 1516 1516 1515 1514 1513 1513 1512
1443 1446 1448 1449 1450 1451 1452 1453 1454 1455 1455 1456 1458 1459 1461 1463 1463 1464 1466 1467 1468 1469 1470 1473 1475 1477 1480 1484 1488 1493 1496 1498 1502 1506 1507 1506 1507 1507 1507 1507 1508 1509 1511 1511 1512 1512 1513 1513 1514 1514 1514 1514 1514 1515 1515 1515 1514 1513 1512 1511 1510 1509 1508
1443 1445 1447 1448 1449 1450 1450 1451 1452 1453 1454 1456 1458 1459 1461 1462 1463 1464 1465 1467 1469 1472 1473 1475 1476 1478 1481 1483 1484 1488 1492 1495 1500 1504 1504 1504 1505 1504 1504 1504 1505 1506 1507 1508 1508 1509 1509 1510 1511 1512 1512 1512 1513 1513 1512 1512 1511 1510 1509 1508 1508 1507 1505
1442 1444 1445 1446 1448 1448 1449 1450 1451 1452 1454 1455 1457 1459 1460 1461 1462 1464 1465 1466 1467 1470 1471 1471 1472 1474 1478 1482 1485 1489 1493 1495 1497 1499 1499 1501 1501 1501 1501 1501 1502 1503 1504 1504 1505 1506 1507 1508 1508 1509 1509 1508 1508 1508 1508 1509 1508 1507 1506 1506 1505 1504 1503
1441 1442 1444 1445 1447 1447 1448 1449 1450 1452 1454 1455 1456 1458 1458 1459 1461 1462 1463 1462 1462 1464 1465 1467 1469 1471 1475 1480 1484 1489 1492 1493 1493 1494 1495 1496 1497 1497 1498 1498 1499 1500 1501 1502 1503 1503 1503 1504 1504 1505 1505 1504 1504 1505 1506 1507 1506 1505 1504 1503 1502 1501 1500
1441 1442 1444 1444 1445 1446 1447 1448 1449 1450 1452 1453 1454 1456 1456 1457 1458 1459 1460 1459 1460 1461 1463 1467 1471 1472 1473 1475 1479 1485 1489 1490 1489 1489 1490 1492 1494 1494 1495 1496 1497 1498 1499 1500 1500 1500 1501 1501 1502 1503 1503 1502 1503 1504 1505 1504 1503 1502 1501 1500 1499 1498 1497
1442 1443 1444 1444 1445 1445 1446 1446 1447 1448 1450 1451 1452 1454 1455 1455 1455 1457 1458 1458 1459 1460 1461 1465 1469 1470 1470 1472 1475 1481 1486 1487 1486 1486 1487 1489 1491 1492 1493 1494 1495 1496 1497 1497 1497 1498 1498 1499 1500 1500 1500 1499 1500 1500 1501 1501 1500 1498 1497 1497 1496 1495 1494
1443 1444 1444 1444 1444 1445 1445 1446 1446 1447 1448 1449 1450 1452 1453 1453 1454 1455 1455 1455 1456 1456 1458 1462 1465 1467 1469 1471 1474 1478 1482 1483 1483 1483 1484 1487 1489 1490 1491 1492 1493 1494 1494 1494 1495 1496 1496 1496 1497 1497 1497 1496 1496 1497 1497 1497 1496 1495 1494 1493 1493 1492 1491
1442 1443 1443 1443 1443 1444 1444 1445 1445 1445 1446 1447 1448 1450 1451 1451 1451 1451 1452 1452 1452 1453 1456 1461 1464 1465 1468 1470 1472 1475 1477 1479 1480 1481 1483 1485 1487 1488 1489 1490 1491 1491 1491 1491 1492 1493 1493 1494 1495 1495 1494 1494 1494 1494 1494 1493 1492 1491 1491 1490 1490 1489 1488
1441 1441 1442 1442 1443 1443 1443 1443 1444 1444 1444 1445 1446 1448 1448 1449 1448 1448 1448 1449 1449 1452 1456 1459 1461 1464 1466 1468 1471 1474 1475 1476 1478 1480 1482 1483 1484 1485 1486 1487 1488 1488 1488 1489 1489 1489 1490 1491 1492 1493 1493 1492 1492 1491 1491 1490 1489 1488 1488 1487 1487 1486 1485
1439 1440 1440 1440 1441 1441 1441 1442 1442 1442 1443 1444 1445 1446 1446 1446 1445 1445 1445 1446 1448 1451 1454 1456 1459 1462 1464 1468 1472 1475 1475 1476 1478 1480 1481 1482 1482 1483 1484 1485 1485 1486 1487 1488 1488 1488 1488 1489 1490 1491 1491 1490 1490 1489 1488 1487 1486 1485 1485 1485 1484 1483 1483
1438 1439 1440 1440 1440 1440 1441 1441 1440 1440 1441 1442 1443 1444 1445 1445 1445 1446 1447 1449 1451 1452 1453 1454 1457 1460 1463 1469 1474 1475 1475 1476 1477 1478 1480 1481 1482 1482 1483 1484 1484 1486 1487 1487 1487 1487 1487 1488 1488 1489 1489 1489 1488 1486 1485 1484 1483 1482 1482 1481 1481 1480 1480
1439 1440 1440 1440 1440 1440 1440 1440 1440 1440 1441 1441 1443 1444 1445 1445 1446 1448 1451 1453 1454 1455 1455 1455 1456 1459 1464 1469 1472 1473 1474 1475 1476 1477 1479 1480 1481 1482 1483 1483 1483 1484 1485 1485 1485 1485 1486 1486 1487 1487 1487 1486 1485 1484 1482 1481 1480 1479 1478 1478 1478 1478 1477
1440 1439 1439 1440 1440 1440 1441 1441 1442 1442 1441 1442 1443 1444 1444 1446 1447 1450 1453 1455 1457 1460 1460 1459 1460 1462 1464 1466 1468 1470 1473 1474 1475 1476 1478 1480 1481 1481 1481 1481 1481 1482 1482 1483 1483 1484 1484 1485 1485 1485 1484 1483 1482 1481 1479 1478 1477 1476 1476 1476 1476 1475 1475
1439 1439 1439 1439 1439 1440 1440 1440 1441 1441 1441 1441 1442 1443 1445 1448 1449 1452 1454 1456 1459 1462 1464 1463 1464 1464 1464 1464 1467 1469 1470 1472 1474 1476 1478 1479 1479 1479 1479 1479 1480 1480 1481 1481 1482 1482 1483 1483 1482 1482 1481 1480 1479 1478 1477 1476 1475 1474 1473 1473 1473 1473 1473
1439 1439 1439 1439 1439 1439 1439 1439 1440 1440 1440 1440 1441 1443 1445 1446 1447 1450 1452 1454 1455 1457 1459 1462 1465 1464 1463 1463 1465 1467 1469 1472 1475 1476 1477 1477 1477 1477 1478 1478 1479 1479 1479 1480 1480 1480 1481 1480 1480 1480 1479 1478 1477 1476 1474 1473 1473 1472 1471 1471 1471 1471 1471
1439 1439 1439 1439 1439 1439 1439 1439 1439 1440 1440 1440 1441 1443 1443 1444 1445 1446 1448 1450 1451 1453 1456 1462 1466 1468 1467 1467 1468 1471 1473 1475 1476 1475 1475 1475 1475 1476 1476 1477 1477 1477 1478 1478 1478 1478 1478 1478 1477 1477 1476 1476 1475 1473 1472 1471 1470 1469 1469 1469 1469 1469 1468
1439 1439 1439 1439 1439 1439 1439 1438 1439 1439 1439 1439 1440 1441 1441 1443 1444 1446 1447 1450 1453 1454 1458 1464 1469 1470 1470 1470 1471 1473 1474 1474 1474 1473 1473 1473 1473 1473 1474 1474 1475 1475 1475 1476 1476 1476 1476 1475 1475 1474 1474 1473 1472 1471 1470 1469 1468 1468 1467 1467 1467 1467 1466
1438 1438 1438 1438 1438 1438 1438 1437 1437 1438 1439 1440 1441 1442 1443 1445 1446 1447 1449 1451 1453 1455 1457 1461 1464 1465 1465 1465 1465 1466 1468 1469 1470 1470 1470 1470 1471 1471 1472 1472 1473 1473 1473 1473 1473 1473 1473 1472 1472 1472 1471 1471 1470 1469 1468 1467 1466 1466 1466 1465 1465 1465 1464